Flag for Turkey Weather past 2 weeks in Mersin, Turkey

Now
61 °F

Scattered clouds.


Feels Like: 61 °F
Forecast: 45 / 60 °F
Wind: 2 mph from North

Location: Adana / Sakirpasa

Current Time: Feb 1, 2015 at 5:34:18 PM

Latest Report: Feb 1, 2015 at 4:50 PM


Visibility: 2 mi

Pressure: 30.09 "Hg

Humidity: 68%

Dew point: 50 °F

Location of MersinLocation

Historic Weather in Mersin — Graph

°F

Mersin temperature yesterday

Maximum temperature yesterday: 54 °F (at 12:20 PM)
Minimum temperature yesterday: 48 °F (at 12:20 AM)
Average temperature yesterday: 52 °F

Past Weeks' High & Low Weather Summary

 TemperatureHumidityPressure
High70 °F (Jan 25, 12:50 PM)94% (Jan 30, 5:50 AM)30.33 "Hg (Jan 30, 5:50 AM)
Low34 °F (Jan 18, 5:20 AM)23% (Jan 23, 2:20 PM)29.83 "Hg (Jan 28, 4:50 AM)
Average52 °F67%30.09 "Hg
* Reported Jan 17 4:20 PM — Feb 1 4:20 PM, Mersin, Weather by CustomWeather, © 2014

Note: Actual official high and low records may vary slightly from our data, if they occured in-between our weather recording intervals... More about our weather records

Advertising

Mersin weather history for previous 24 hours

 ConditionsComfort  
Time TempWeatherWind HumidityBarometerVisibility
4:20 PM
Feb 1
61 °FScattered clouds.3 mph68%30.09 "Hg2 mi
3:50 PM63 °FScattered clouds.3 mph59%30.09 "Hg2 mi
3:20 PM63 °FScattered clouds.3 mph59%30.09 "Hg3 mi
2:50 PM64 °FScattered clouds.3 mph56%30.09 "Hg3 mi
2:20 PM64 °FScattered clouds.3 mph56%30.09 "Hg2 mi
1:50 PM63 °FBroken clouds.2 mph59%30.09 "Hg2 mi
1:20 PM61 °FBroken clouds.3 mph68%30.09 "Hg2 mi
12:50 PM61 °FFog.5 mph72%30.09 "Hg2 mi
12:20 PM59 °FFog.6 mph77%30.12 "Hg2 mi
11:50 AM59 °FFog.7 mph77%30.12 "Hg2 mi
11:20 AM59 °FFog.5 mph77%30.15 "Hg2 mi
10:50 AM55 °FFog.5 mph88%30.15 "Hg2 mi
10:20 AM55 °FFog.5 mph88%30.15 "Hg2 mi
9:50 AM55 °FFog.5 mph82%30.15 "Hg2 mi
9:20 AM55 °FFog.5 mph82%30.15 "Hg3 mi
8:50 AM55 °FFog.7 mph82%30.15 "Hg3 mi
8:20 AM54 °FFog.8 mph88%30.15 "Hg2 mi
7:50 AM52 °FFog.6 mph94%30.15 "Hg2 mi
7:20 AM52 °FFog.5 mph88%30.15 "Hg2 mi
6:50 AM50 °FFog.7 mph88%30.15 "Hg2 mi
6:20 AM50 °FFog.6 mph88%30.15 "Hg2 mi
5:50 AM50 °FFog.7 mph94%30.12 "Hg2 mi
5:20 AM50 °FFog.7 mph94%30.12 "Hg2 mi
4:50 AM50 °FFog.7 mph94%30.12 "Hg2 mi
4:20 AM50 °FFog.7 mph88%30.12 "Hg2 mi
3:50 AM50 °FFog.7 mph94%30.12 "Hg2 mi
3:20 AM50 °FFog.7 mph94%30.12 "Hg2 mi
2:50 AM50 °FFog.5 mph94%30.12 "Hg2 mi
2:20 AM50 °FFog.6 mph94%30.12 "Hg2 mi
1:50 AM52 °FFog.6 mph88%30.12 "Hg2 mi
1:20 AM52 °FFog.6 mph94%30.12 "Hg2 mi
12:50 AM52 °FFog.5 mph94%30.15 "Hg2 mi
12:20 AM52 °FFog.5 mph94%30.15 "Hg2 mi
11:50 PM
Jan 31
52 °FSprinkles. Fog.3 mph94%30.12 "Hg2 mi
11:20 PM52 °FFog.5 mph94%30.12 "Hg2 mi
10:50 PM52 °FSprinkles. Fog.6 mph94%30.12 "Hg2 mi
10:20 PM54 °FFog.2 mph88%30.12 "Hg2 mi
9:50 PM54 °FFog.5 mph88%30.12 "Hg2 mi
9:20 PM54 °FFog.7 mph88%30.12 "Hg2 mi
8:50 PM52 °FSprinkles. Fog.7 mph94%30.12 "Hg2 mi
8:20 PM52 °FSprinkles. Fog.7 mph94%30.09 "Hg2 mi
7:50 PM54 °FSprinkles. Fog.9 mph88%30.09 "Hg2 mi
7:20 PM54 °FSprinkles. Fog.8 mph88%30.09 "Hg2 mi
6:50 PM54 °FSprinkles. Fog.7 mph88%30.09 "Hg2 mi
6:20 PM54 °FFog.6 mph88%30.09 "Hg2 mi
5:50 PM54 °FSprinkles. Fog.9 mph88%30.09 "Hg2 mi
5:20 PM54 °FFog.7 mph88%30.07 "Hg2 mi
Weather by CustomWeather, © 2014

See weather overviewHow to use our weather pages